Track STARLINK-1856 now! 10-day predictions STARLINK-1856 is classified as:
1 47143U 20088X 22185.42768736 -.00001045 00000-0 -51273-4 0 9992 2 47143 53.0533 206.2391 0001557 63.6537 296.4612 15.06399331 89367